TimeCST,TemperatureF,Dew PointF,Humidity,Sea Level PressureIn,VisibilityMPH,Wind Direction,Wind SpeedMPH,Gust SpeedMPH,PrecipitationIn,Events,Conditions,WindDirDegrees,DateUTC
12:15 AM,10.2,4.8,79,29.98,7.0,NNW,5.8,-,N/A,Snow,Light Snow,330,2014-02-02 06:15:00
12:35 AM,9.9,4.6,79,30.00,5.0,NW,5.8,-,N/A,Snow,Light Snow,310,2014-02-02 06:35:00
12:55 AM,9.5,5.7,85,30.00,1.2,WNW,6.9,-,N/A,Snow,Light Snow,300,2014-02-02 06:55:00
1:15 AM,9.3,4.3,80,30.00,5.0,WNW,4.6,-,N/A,Snow,Light Snow,300,2014-02-02 07:15:00
1:35 AM,9.0,4.1,81,30.01,7.0,Calm,Calm,-,N/A,Snow,Light Snow,0,2014-02-02 07:35:00
1:55 AM,8.6,4.1,82,30.01,5.0,WNW,4.6,-,N/A,Snow,Light Snow,290,2014-02-02 07:55:00
2:15 AM,8.6,3.7,81,30.01,7.0,NW,6.9,-,N/A,Snow,Light Snow,310,2014-02-02 08:15:00
2:35 AM,8.2,3.6,81,30.01,4.0,NW,3.5,-,N/A,Snow,Light Snow,310,2014-02-02 08:35:00
2:55 AM,7.7,3.4,83,30.01,1.2,WNW,8.1,-,N/A,Snow,Light Snow,300,2014-02-02 08:55:00
3:15 AM,7.5,2.8,81,30.01,10.0,NW,6.9,-,N/A,,Overcast,310,2014-02-02 09:15:00
3:35 AM,7.0,2.3,81,30.02,10.0,WNW,6.9,-,N/A,Snow,Light Snow,300,2014-02-02 09:35:00
3:55 AM,6.8,1.9,80,30.01,10.0,NW,5.8,-,N/A,Snow,Light Snow,310,2014-02-02 09:55:00
4:15 AM,6.4,1.8,81,30.02,10.0,NW,4.6,-,N/A,Snow,Light Snow,310,2014-02-02 10:15:00
4:35 AM,5.9,1.2,81,30.03,10.0,WNW,4.6,-,N/A,Snow,Light Snow,300,2014-02-02 10:35:00
4:55 AM,5.7,1.0,81,30.03,7.0,WNW,4.6,-,N/A,Snow,Light Snow,300,2014-02-02 10:55:00
5:15 AM,5.4,0.5,80,30.03,10.0,West,4.6,-,N/A,Snow,Light Snow,280,2014-02-02 11:15:00
5:35 AM,5.0,-0.0,80,30.04,10.0,WNW,4.6,-,N/A,Snow,Light Snow,290,2014-02-02 11:35:00
5:55 AM,4.8,-0.6,78,30.05,10.0,WNW,4.6,-,N/A,,Overcast,300,2014-02-02 11:55:00
6:15 AM,4.1,-1.3,78,30.05,10.0,WNW,4.6,-,N/A,Snow,Light Snow,290,2014-02-02 12:15:00
6:35 AM,4.1,-1.5,78,30.06,7.0,NW,5.8,-,N/A,Snow,Light Snow,310,2014-02-02 12:35:00
6:55 AM,3.7,-2.4,76,30.06,7.0,WNW,4.6,-,N/A,Snow,Light Snow,300,2014-02-02 12:55:00
7:15 AM,2.8,-2.7,78,30.08,10.0,West,6.9,-,N/A,,Overcast,280,2014-02-02 13:15:00
7:35 AM,1.8,-3.6,78,30.08,10.0,WNW,4.6,-,N/A,,Overcast,300,2014-02-02 13:35:00
7:55 AM,1.4,-3.8,79,30.09,10.0,Calm,Calm,-,N/A,,Overcast,0,2014-02-02 13:55:00
8:15 AM,1.9,-3.8,77,30.10,7.0,WNW,3.5,-,N/A,Snow,Light Snow,300,2014-02-02 14:15:00
8:35 AM,2.3,-3.5,77,30.11,7.0,WNW,6.9,-,N/A,Snow,Light Snow,290,2014-02-02 14:35:00
8:55 AM,2.7,-4.0,74,30.11,10.0,NW,4.6,-,N/A,,Overcast,320,2014-02-02 14:55:00
9:15 AM,3.0,-3.5,74,30.11,10.0,NW,6.9,-,N/A,,Mostly Cloudy,310,2014-02-02 15:15:00
9:35 AM,3.9,-3.5,71,30.11,10.0,WNW,4.6,-,N/A,,Scattered Clouds,290,2014-02-02 15:35:00
9:55 AM,4.8,-3.3,69,30.11,10.0,West,4.6,-,N/A,,Clear,270,2014-02-02 15:55:00
10:15 AM,5.5,-3.1,68,30.12,10.0,WNW,3.5,-,N/A,,Clear,290,2014-02-02 16:15:00
10:35 AM,6.4,-3.1,65,30.12,10.0,West,3.5,-,N/A,,Clear,270,2014-02-02 16:35:00
10:55 AM,7.2,-3.1,63,30.12,10.0,SSW,3.5,-,N/A,,Clear,210,2014-02-02 16:55:00
11:15 AM,8.1,-3.1,60,30.12,10.0,WSW,4.6,-,N/A,,Clear,240,2014-02-02 17:15:00
11:35 AM,8.6,-3.6,58,30.12,10.0,West,5.8,-,N/A,,Clear,260,2014-02-02 17:35:00
11:55 AM,9.5,-3.3,56,30.11,10.0,WNW,5.8,-,N/A,,Clear,300,2014-02-02 17:55:00
12:15 PM,9.9,-3.5,55,30.11,10.0,WNW,5.8,-,N/A,,Clear,290,2014-02-02 18:15:00
12:35 PM,10.4,-3.8,53,30.09,10.0,WNW,3.5,-,N/A,,Clear,300,2014-02-02 18:35:00
12:55 PM,11.1,-3.8,51,30.09,10.0,West,6.9,-,N/A,,Clear,270,2014-02-02 18:55:00
1:15 PM,11.8,-4.2,49,30.09,10.0,West,5.8,-,N/A,,Clear,280,2014-02-02 19:15:00
1:35 PM,11.8,-4.2,49,30.08,10.0,Calm,Calm,-,N/A,,Clear,0,2014-02-02 19:35:00
1:55 PM,12.0,-4.9,47,30.08,10.0,West,5.8,-,N/A,,Clear,270,2014-02-02 19:55:00
2:15 PM,12.2,-4.5,47,30.08,10.0,WSW,4.6,-,N/A,,Clear,240,2014-02-02 20:15:00
2:35 PM,12.2,-4.9,46,30.08,10.0,SW,8.1,-,N/A,,Clear,230,2014-02-02 20:35:00
2:55 PM,12.6,-5.1,45,30.08,10.0,SW,8.1,-,N/A,,Clear,230,2014-02-02 20:55:00
3:15 PM,12.4,-4.9,46,30.09,10.0,West,6.9,-,N/A,,Clear,260,2014-02-02 21:15:00
3:35 PM,12.2,-4.4,48,30.10,10.0,WSW,6.9,-,N/A,,Clear,250,2014-02-02 21:35:00
3:55 PM,12.2,-4.0,48,30.09,10.0,WSW,5.8,-,N/A,,Clear,240,2014-02-02 21:55:00
4:15 PM,11.3,-4.0,50,30.10,10.0,WSW,6.9,-,N/A,,Clear,240,2014-02-02 22:15:00
4:35 PM,10.4,-4.0,52,30.11,10.0,WSW,5.8,-,N/A,,Clear,250,2014-02-02 22:35:00
4:55 PM,9.1,-4.0,55,30.12,10.0,WSW,3.5,-,N/A,,Clear,250,2014-02-02 22:55:00
5:15 PM,8.1,-4.0,58,30.13,10.0,WSW,3.5,-,N/A,,Clear,240,2014-02-02 23:15:00
5:35 PM,7.0,-4.2,60,30.13,10.0,WSW,3.5,-,N/A,,Clear,240,2014-02-02 23:35:00
5:55 PM,5.9,-4.2,63,30.13,10.0,WSW,3.5,-,N/A,,Clear,240,2014-02-02 23:55:00
6:15 PM,5.5,-4.5,63,30.13,10.0,Calm,Calm,-,N/A,,Clear,0,2014-02-03 00:15:00
6:35 PM,4.3,-4.7,66,30.12,10.0,Calm,Calm,-,N/A,,Clear,0,2014-02-03 00:35:00
6:55 PM,-1.1,-6.7,77,30.12,10.0,Calm,Calm,-,N/A,,Clear,0,2014-02-03 00:55:00
7:15 PM,-5.4,-9.6,82,30.12,10.0,Calm,Calm,-,N/A,,Clear,0,2014-02-03 01:15:00
7:35 PM,-6.5,-10.1,84,30.12,10.0,Calm,Calm,-,N/A,,Clear,0,2014-02-03 01:35:00
7:55 PM,-5.6,-9.8,82,30.11,10.0,WSW,3.5,-,N/A,,Clear,240,2014-02-03 01:55:00
8:15 PM,-8.5,-12.6,82,30.11,10.0,SW,3.5,-,N/A,,Clear,230,2014-02-03 02:15:00
8:35 PM,-9.0,-13.4,81,30.10,10.0,WSW,3.5,-,N/A,,Clear,240,2014-02-03 02:35:00
8:55 PM,-9.4,-14.4,78,30.10,10.0,Calm,Calm,-,N/A,,Clear,0,2014-02-03 02:55:00
9:15 PM,-11.7,-16.2,80,30.10,10.0,Calm,Calm,-,N/A,,Clear,0,2014-02-03 03:15:00
9:35 PM,-13.0,-17.3,81,30.10,10.0,Calm,Calm,-,N/A,,Clear,0,2014-02-03 03:35:00
9:55 PM,-13.7,-18.2,80,30.10,10.0,Calm,Calm,-,N/A,,Clear,0,2014-02-03 03:55:00
10:15 PM,-14.8,-19.7,79,30.10,10.0,Calm,Calm,-,N/A,,Clear,0,2014-02-03 04:15:00
10:35 PM,-15.9,-20.9,78,30.10,10.0,Calm,Calm,-,N/A,,Clear,0,2014-02-03 04:35:00
10:55 PM,-16.8,-22.4,76,30.10,10.0,Calm,Calm,-,N/A,,Clear,0,2014-02-03 04:55:00
11:15 PM,-17.3,-22.9,76,30.11,10.0,Calm,Calm,-,N/A,,Clear,0,2014-02-03 05:15:00
11:35 PM,-18.9,-25.1,74,30.12,10.0,Calm,Calm,-,N/A,,Clear,0,2014-02-03 05:35:00
11:55 PM,-19.3,-25.4,73,30.13,10.0,Calm,Calm,-,N/A,,Clear,0,2014-02-03 05:55:00